Regional Weather Roundup
Issued by NWS

Home | Current Version | Previous Version | Text Only | Print | Product List | Glossary Off
Versions: 1 2 3 4 5 6 7 8 9 10 11 12 13 14 15 16 17 18 19 20 21 22 23 24 25 26 27 28 29 30 31 32 33 34 35 36 37 38 39 40 41 42 43 44 45 46 47 48 49 50

611
ASUS43 KLSX 120157
RWRMO

WEATHER SUMMARY FOR MISSOURI
NATIONAL WEATHER SERVICE SPRINGFIELD MO
800 PM CST THU FEB 11 2016

NOTE: "FAIR" INDICATES FEW OR NO CLOUDS BELOW 12,000 FEET WITH NO
       SIGNIFICANT WEATHER AND/OR OBSTRUCTIONS TO VISIBILITY.
       CURRENT SKY AND/OR WEATHER CONDITIONS ARE NOT AVAILABLE FOR
       CHILLICOTHE AND FARMINGTON.

MOZ001>031-035>038-043-044-053-054-120300-
...NORTHERN AND WESTERN MISSOURI...

CITY           SKY/WX    TMP DP  RH WIND       PRES   REMARKS
KANSAS CTY INT CLOUDY    33  21  61 E7        30.20R WCI  27
LEE`S SUMMIT   CLOUDY    34  20  56 NE5       30.21R WCI  30
ST JOSEPH      CLOUDY    33  21  61 SE8       30.20F WCI  26
CHILLICOTHE      N/A     28  16  60 SE3       30.26R

$$
MOZ066>068-077>081-088>096-101>105-120300-
...SOUTHWEST MISSOURI...

CITY           SKY/WX    TMP DP  RH WIND       PRES   REMARKS
SPRINGFIELD    CLOUDY    41  20  43 NE6       30.17R
JOPLIN         CLOUDY    38  23  55 NE5       30.18S

$$
MOZ032>034-039>042-045>050-055>058-069>072-120300-
...CENTRAL MISSOURI...

CITY           SKY/WX    TMP DP  RH WIND       PRES   REMARKS
COLUMBIA       NOT AVBL
JEFFERSON CITY CLOUDY    32  19  58 E7        30.25R WCI  26
ROLLA          CLOUDY    31  20  63 E9        30.20F WCI  23
SEDALIA        CLOUDY    33  20  58 E8        30.20F WCI  26

$$
MOZ051-052-059>065-120300-
...EAST CENTRAL MISSOURI...

CITY           SKY/WX    TMP DP  RH WIND       PRES   REMARKS
ST LOUIS INTL  CLOUDY    28  11  48 E7        30.30F WCI  21

$$
MOZ072>076-082>087-097>100-106>115-120300-
...SOUTH CENTRAL AND SOUTHEAST MISSOURI...

CITY           SKY/WX    TMP DP  RH WIND       PRES   REMARKS
CAPE GIRARDEAU CLOUDY    33  19  56 NE7       30.28F WCI  27
POPLAR BLUFF   PTCLDY    34  22  61 E7        30.24F WCI  28
WEST PLAINS    CLOUDY    39  18  42 SE8G17    30.19R

$$



USA.gov is the U.S. government's official web portal to all federal, state and local government web resources and services.